Voltar ao catálogo

STARLINK-3556

AtivoComunicaçõesVLEO
NORAD 51877·PAYLOAD·🇺🇸 United States

Lançado Mar 3, 2022 de Cape Canaveral Space Force Station

Loading…

Próximas Passagens (próximas 24 horas)

TLE

AtualizadoSource: CelesTrak SupGP

Época: Sep 15, 2026, 01:38 UTC

1 51877C 22022AB  26258.06854167 -.00034206  00000+0 -10107-2 0  2581
2 51877  53.1570 212.7934 0001271  89.8885 141.9842 15.34406921    11

Acompanhe STARLINK-3556 em tempo real com AllMySat

Download on the App Store